Regional Weather Roundup
Issued by NWS

Home | Current Version | Previous Version | Text Only | Print | Product List | Glossary Off
Versions: 1 2 3 4 5 6 7 8 9 10 11 12 13 14 15 16 17 18 19 20 21 22 23 24 25 26 27

000
ASUS45 KBOU 232106
RWRCO

WEATHER ROUNDUP FOR COLORADO
NATIONAL WEATHER SERVICE DENVER/BOULDER CO
300 PM MDT WED APR 23 2014

NOTE: "FAIR" INDICATES FEW OR NO CLOUDS BELOW 12000 FEET WITH NO
SIGNIFICANT WEATHER AND/OR OBSTRUCTIONS TO VISIBILITY.

COZ001>005-013-030-031-232200-
...NORTHWEST COLORADO...

CITY           SKY/WX    TMP DP  RH WIND       PRES   REMARKS
CRAIG          CLOUDY    46  26  45 W10       29.91R
HAYDEN         CLOUDY    43  27  52 NW12G18   29.93R
MEEKER         CLOUDY    48  14  25 NW9G21    29.90S
MOUNT WERNER   CLOUDY   N/A N/A N/A W20G26    29.93S VSB 1/2
STEAMBOAT SPGS CLOUDY    44  23  44 W13G24    29.89R
WALDEN         CLOUDY    43  21  42 SW9G22    29.86S
$$

COZ006>008-011-232200-
...WEST CENTRAL VALLEYS...

CITY           SKY/WX    TMP DP  RH WIND       PRES   REMARKS
GRAND JUNCTION CLOUDY    55  14  19 W14G23    29.87R
MONTROSE       CLOUDY    56  17  21 NW21G28   29.86R
EAGLE          PTSUNNY   54  23  30 S14G31    29.83S
RIFLE          CLOUDY    56  20  24 NW13G26   29.83R
DELTA          NOT AVBL
NUCLA          NOT AVBL
$$

COZ017>023-064>068-232200-
...SOUTHWEST COLORADO...

CITY           SKY/WX    TMP DP  RH WIND       PRES   REMARKS
DURANGO        CLOUDY    58   8  13 W17G32    29.86S
CORTEZ         SUNNY     59   9  13 W16G23    29.88R
PAGOSA SPRINGS CLOUDY    56   9  15 W17G30    29.87F
TELLURIDE      CLOUDY    43  18  36 W16G24    29.94R
WOLF CREEK PAS CLOUDY    32  14  47 SW25G47   29.98S WCI  19
$$

COZ009-010-012-014-032>034-037-058>063-232200-
...CENTRAL COLORADO...

CITY           SKY/WX    TMP DP  RH WIND       PRES   REMARKS
ASPEN          CLOUDY    51  19  28 N12G22    29.83R
BUENA VISTA    PTSUNNY   57  10  15 W7G23     29.76F
COPPER MTN     PTSUNNY   37  12  35 SW16G26   29.94S
BERTHOUD PASS  FAIR      30  21  69 W28G33    29.93F WCI  16
COTTONWOOD PAS PTSUNNY   52  10  19 NE5       29.85F
GUNNISON       PTSUNNY   54  16  22 W20G28    29.86R
KREMMLING      CLOUDY    46  28  49 N23G31    29.83S
LEADVILLE      PTSUNNY   43   5  20 W9        29.87S
MONARCH PASS   CLOUDY    32  16  51 W31G38    30.04F WCI  17
SALIDA         PTSUNNY   61  15  16 W18G24    29.83S
SUNLIGHT       CLOUDY    34  21  60 SW5       29.95S WCI  30
WILKERSON PASS PTSUNNY   50  18  27 S10G20    29.91F
$$

COZ069>075-232200-
...SAN LUIS VALLEY/SANGRE DE CRISTO MOUNTAINS...

CITY           SKY/WX    TMP DP  RH WIND       PRES   REMARKS
ALAMOSA        PTSUNNY   63  17  17 SW28G38   29.78F
LA VETA PASS   PTSUNNY   45  21  39 SW18G33   29.87S
SAGUACHE       CLOUDY    55  16  21 NW8       29.78F
$$

COZ035-036-038>040-232200-
...NORTHERN COLORADO FRONT RANGE...

CITY           SKY/WX    TMP DP  RH WIND       PRES   REMARKS
DENVER INTL AP CLOUDY    69  32  25 NE12      29.60S
DMNS CITY PARK   N/A     67  27  22 NE12G17   29.58S
AURORA         PTSUNNY   70  18  13 SW5       29.61S
FRONT RANGE AP NOT AVBL
ERIE MUNI ARPT CLOUDY    67  25  20 W20       29.60S
BOULDER MUN AP CLOUDY    66  28  24 SW12G30   29.59F
CENTENNIAL     CLOUDY    69  18  14 SW15G23   29.61F
BROOMFIELD     PTSUNNY   66  28  24 W13G18    29.61S
FORT COLLINS   CLOUDY    66  27  22 W8        29.62S
LONGMONT       NOT AVBL
$$

COZ041-046-047-076>085-087-088-232200-
...PIKES PEAK/PALMER DIVIDE AND SOUTHERN FOOTHILLS...

CITY           SKY/WX    TMP DP  RH WIND       PRES   REMARKS
COLO. SPRINGS  CLOUDY    70  19  14 SW21      29.63S
A. F. ACADEMY  MOSUNNY   67  19  16 W15G21    29.64F
ELLICOTT       NOT AVBL
FALCON         CLOUDY    65  19  16 S18G28    29.68F
FORT CARSON    CLOUDY    72  21  15 S13G21    29.61F
LIMON          PTSUNNY   69  34  27 NE23G30   29.58F
MONUMENT HILL  CLOUDY    63  16  16 W13G18    29.67F
TRINIDAD       SUNNY     77  15   9 SW23G35   29.65F
$$

COZ042>045-048>051-090-091-232200-
...NORTHEAST COLORADO...

CITY           SKY/WX    TMP DP  RH WIND       PRES   REMARKS
GREELEY ARPT   CLOUDY    70  25  18 CALM      29.60R
AKRON          MOSUNNY   70  33  25 NE17G28   29.60F
BURLINGTON     MOSUNNY   74  38  27 NE21      29.57F
WRAY           SUNNY     78  33  19 N16G26    29.59F
STERLING       NOT AVBL
HOLYOKE        NOT AVBL
FORT MORGAN    NOT AVBL
$$

COZ086-089-092>099-232200-
...SOUTHEAST COLORADO...

CITY           SKY/WX    TMP DP  RH WIND       PRES   REMARKS
PUEBLO         PTSUNNY   80  14   8 W8G17     29.54F
LA JUNTA       SUNNY     84  16   8 W16G24    29.53F
LAMAR          SUNNY     87  17   7 SW12G29   29.48F
SPRINGFIELD      N/A     83  19   9 SW20G43   29.56F
$$



USA.gov is the U.S. government's official web portal to all federal, state and local government web resources and services.